Other Public Products
Issued by NWS Charleston, SC

Home | Current Version | Previous Version | Text Only | Print | Product List | Glossary On
Versions: 1 2 3 4 5 6 7 8 9 10 11 12 13 14 15 16 17 18 19 20 21 22 23 24 25 26 27 28 29 30 31 32 33 34 35 36 37 38 39 40 41 42 43 44 45 46 47 48 49 50
947
FPUS82 KCHS 271627
OPUCHS

TEST...KCHS/KSAV Gateway Observations...TEST
National Weather Service Charleston SC
1200 PM EDT MON MAR 27 2017

NOTE: "fair" indicates few or no clouds below 12,000 feet with no
significant weather and/or obstructions to visibility.

SCZ050-WAZ558-NCZ071-TXZ119-213-PAZ071-DCZ001-FLZ074-172-MI076-
NYZ176-178-MAZ016-IL014-TNZ027-NJZ106-GAZ044-MD014-271700-

...Gateway Observations for Charleston International...

CITY           SKY/WX    TMP DP  RH WIND       PRES   REMARKS
Chas Airport   MOSUNNY   78  58  49 SW12      30.15F
Seattle        PTSUNNY   46  43  89 S10       30.02R
Charlotte      PTSUNNY   69  58  67 S10       30.12F
Dallas DFW     PTSUNNY   59  51  75 NW14      29.93R
Dallas Love    PTSUNNY   61  51  70 NW12      29.94R
Philladelphia  CLOUDY    49  47  93 SE3       30.07F FOG
Wash National  CLOUDY    56  52  86 S7        30.06F
Baltimore      CLOUDY    54  52  93 SW6       30.06F FOG
Miami          PTSUNNY   82  61  48 E8        30.09S
Detroit        CLOUDY    58  51  78 W12       29.95R
Newark         CLOUDY    45  44  97 CALM      30.07F
Laguardia      CLOUDY    43  41  93 NE9       30.06F FOG
J F K          LGT RAIN  45  44  97 N3        30.08F
Boston Logan   RAIN      40  40 100 E5        30.11F VSB 1/2 WCI  37
Ft. Lauderdale MOSUNNY   79  62  56 NE10G18   30.09S
Chicago O`Hare CLOUDY    48  44  86 E6        29.94F FOG
Chicago Midway CLOUDY    47  45  93 NE7       29.96R FOG
Houston Bush   MOSUNNY   77  67  71 S14       29.92R
Houston Hobby  MOSUNNY   78  68  71 S14       29.92S
Nashville      CLOUDY    70  60  70 S15G22    29.98S
Atlanta        PTSUNNY   71  61  70 SW13      30.11F

$$

GAZ044-118-TXZ119-213-NCZ071-DCZ001-MDZ014-506-PAZ021-071-NJZ106-
NYZ176-178-MAZ106-OHZ011-021-055-MIZ076-KYZ091-ILZ014-INZ047-
MNZ060-ONZ431-271700-

...Gateway Observations for Savannah International...

CITY           SKY/WX    TMP DP  RH WIND       PRES   REMARKS
Savannah Arpt  MOSUNNY   79  58  48 VRB6      30.14F
Atlanta        PTSUNNY   71  61  70 SW13      30.11F
Charlotte      PTSUNNY   69  58  67 S10       30.12F
Dallas DFW     PTSUNNY   59  51  75 NW14      29.93R
Houston Bush   MOSUNNY   77  67  71 S14       29.92R
Wash National  CLOUDY    56  52  86 S7        30.06F
Wash Dulles    CLOUDY    56  51  84 SW7       30.06S HAZE
Baltimore      CLOUDY    54  52  93 SW6       30.06F FOG
Philadelphia   CLOUDY    49  47  93 SE3       30.07F FOG
Newark         CLOUDY    45  44  97 CALM      30.07F
Laguardia      CLOUDY    43  41  93 NE9       30.06F FOG
J F K          LGT RAIN  45  44  97 N3        30.08F
Boston         RAIN      40  40 100 E5        30.11F VSB 1/2 WCI  37
Pittsburg      PTSUNNY   60  50  69 SW7G16    29.99F
Akron          CLOUDY    58  49  72 SW14      29.98F
Cleveland      LGT RAIN  56  52  86 SW8       30.00R FOG
Cincinnati     CLOUDY    60  50  69 SE8       29.99F
Columbus       PTSUNNY   60  50  68 W8        30.00F
Detroit        CLOUDY    58  51  78 W12       29.95R
Chicago O`Hare CLOUDY    48  44  86 E6        29.94F FOG
Minneapolis    MOSUNNY   48  35  60 N6        29.98R
Indianapolis   CLOUDY    59  50  72 SE12      29.95S
Toronto Canada CLOUDY    52  50  93 CALM      29.88S FOG

$$




USA.gov is the U.S. government's official web portal to all federal, state and local government web resources and services.